Starlink 32634

operational
NORAD ID: 62313 Int'l Des: 2024-239 Owner: SPXS Country: US Constellation: starlink
LEOCIRCULAR

关于 Starlink 32634

正在加载描述...

实时位置

正在加载3D地球...

即将过境

高度历史

Altitude vs Time

uPlot chart will show altitude changes over time

两行轨道根数

1 62313U 24239N 25307.54664037 .00027431 00000-0 93476-3 0 9996
2 62313 53.1637 46.8642 0001294 78.0418 282.0728 15.30203997 50256
Epoch: Nov 3, 2025 • Age: 12 hours

当前状态

高度 484.9 km
速度 7.62 km/s
星下点 -30.67°S, 47.62°W
发射日期 Dec 13, 2024
运行时间 0.8 years
类型 internet

技术详情

分类 Payload
质量 730.00 kg
干质量 700.00 kg
总质量 730.00 kg
长度 0.30 m
直径 4.10 m
跨度 29.00 m
形状 Box + pan
制造商 SPXS
平台类型 Starlink V2M
阶段状态 In Orbit
所有者/国家 SPXS/US

大型星座

Loading constellations...